When you browse on this site, cookies collect data to enhance your experience and personalize the content and advertising you see.
Visit our Privacy Policy to learn more. By continuing to use the site, you agree to this use of cookies and data.
  • In United Kingdom
  • List of Countries
  • For 7 days
  • Water Temperature
  • Satellite Maps
  • Weather Map
  • Weather Widgets
  • user-avatar
    Login

    Hourly Weather Abergele

    Today, 17 January, Thursday

    Time Temperature Precipitation Wind Pressure Humidity
    00:00 +2°C° 0 mm 6 mps 744 mmHg 83%
    01:00 +2°C° 0.2 mm 7 mps 745 mmHg 82%
    02:00 +1°C° 0.2 mm 8 mps 746 mmHg 81%
    03:00 +2°C° 0.2 mm 9 mps 747 mmHg 80%
    04:00 +1°C° 0.1 mm 9 mps 748 mmHg 74%
    05:00 0°C° 0.1 mm 9 mps 749 mmHg 68%
    06:00 0°C° 0 mm 8 mps 750 mmHg 64%
    07:00 0°C° 0 mm 7 mps 750 mmHg 64%
    08:00 0°C° 0 mm 7 mps 751 mmHg 63%
    09:00 0°C° 0 mm 7 mps 752 mmHg 63%
    10:00 0°C° 0 mm 7 mps 752 mmHg 60%
    11:00 +2°C° 0 mm 7 mps 753 mmHg 58%
    12:00 +3°C° 0 mm 7 mps 754 mmHg 55%
    13:00 +3°C° 0 mm 6 mps 754 mmHg 57%
    14:00 +3°C° 0 mm 5 mps 754 mmHg 58%
    15:00 +2°C° 0 mm 5 mps 754 mmHg 59%
    16:00 +3°C° 0 mm 4 mps 755 mmHg 61%
    17:00 +3°C° 0 mm 2 mps 755 mmHg 63%
    18:00 +3°C° 0 mm 1 mps 755 mmHg 66%
    19:00 +3°C° 0 mm 1 mps 755 mmHg 67%
    20:00 +3°C° 0 mm 1 mps 755 mmHg 68%
    21:00 +3°C° 0 mm 1 mps 756 mmHg 69%
    22:00 +2°C° 0 mm 2 mps 755 mmHg 70%
    23:00 +2°C° 0 mm 2 mps 755 mmHg 71%

    Tomorrow, 18 January, Friday

    Time Temperature Precipitation Wind Pressure Humidity
    00:00 0°C° 0 mm 3 mps 755 mmHg 73%
    01:00 0°C° 0 mm 3 mps 755 mmHg 72%
    02:00 0°C° 0 mm 3 mps 755 mmHg 71%
    03:00 0°C° 0 mm 3 mps 754 mmHg 70%
    04:00 -1°C° 0 mm 4 mps 754 mmHg 70%
    05:00 -1°C° 0 mm 4 mps 753 mmHg 70%
    06:00 -1°C° 0 mm 4 mps 753 mmHg 69%
    07:00 0°C° 0 mm 5 mps 752 mmHg 70%
    08:00 0°C° 0 mm 5 mps 752 mmHg 72%
    09:00 0°C° 0 mm 5 mps 751 mmHg 73%
    10:00 -1°C° 0.3 mm 6 mps 751 mmHg 74%
    11:00 0°C° 0.3 mm 7 mps 751 mmHg 76%
    12:00 +1°C° 0.3 mm 8 mps 750 mmHg 77%
    13:00 +1°C° 0.3 mm 8 mps 750 mmHg 78%
    14:00 +1°C° 0.3 mm 8 mps 749 mmHg 80%
    15:00 +1°C° 0.3 mm 9 mps 748 mmHg 81%
    16:00 +1°C° 0.1 mm 8 mps 748 mmHg 83%
    17:00 +1°C° 0.1 mm 8 mps 748 mmHg 85%
    18:00 +2°C° 0.1 mm 7 mps 748 mmHg 87%
    19:00 +2°C° 0 mm 7 mps 747 mmHg 88%
    20:00 +2°C° 0 mm 6 mps 747 mmHg 90%
    21:00 +2°C° 0 mm 6 mps 747 mmHg 92%
    22:00 +2°C° 0.1 mm 5 mps 747 mmHg 92%
    23:00 +2°C° 0.1 mm 5 mps 747 mmHg 92%

    Day after tomorrow, 19 January, Saturday

    Time Temperature Precipitation Wind Pressure Humidity
    00:00 +3°C° 0.1 mm 5 mps 747 mmHg 93%
    01:00 +4°C° 0.1 mm 4 mps 746 mmHg 93%
    02:00 +4°C° 0.1 mm 4 mps 746 mmHg 94%
    03:00 +3°C° 0.1 mm 4 mps 746 mmHg 94%
    04:00 +3°C° 0 mm 4 mps 746 mmHg 94%
    05:00 +3°C° 0 mm 3 mps 745 mmHg 95%
    06:00 +3°C° 0 mm 3 mps 745 mmHg 95%
    07:00 +2°C° 0 mm 3 mps 745 mmHg 95%
    08:00 +2°C° 0 mm 3 mps 745 mmHg 96%
    09:00 +3°C° 0 mm 2 mps 746 mmHg 96%
    10:00 +4°C° 0 mm 2 mps 746 mmHg 93%
    11:00 +7°C° 0 mm 1 mps 746 mmHg 91%
    12:00 +8°C° 0 mm 1 mps 746 mmHg 88%
    13:00 +8°C° 0 mm 1 mps 746 mmHg 88%
    14:00 +8°C° 0 mm 1 mps 746 mmHg 89%
    15:00 +8°C° 0 mm 1 mps 746 mmHg 89%
    16:00 +7°C° 0 mm 1 mps 747 mmHg 91%
    17:00 +6°C° 0 mm 1 mps 747 mmHg 93%
    18:00 +5°C° 0 mm 1 mps 748 mmHg 94%
    19:00 +5°C° 0 mm 1 mps 748 mmHg 94%
    20:00 +5°C° 0 mm 1 mps 749 mmHg 94%
    21:00 +5°C° 0 mm 1 mps 749 mmHg 94%
    22:00 +4°C° 0 mm 1 mps 750 mmHg 94%
    23:00 +4°C° 0 mm 1 mps 750 mmHg 93%

    20 January, Sunday

    Time Temperature Precipitation Wind Pressure Humidity
    00:00 +4°C° 0 mm 1 mps 750 mmHg 93%
    01:00 +4°C° 0 mm 1 mps 751 mmHg 92%
    02:00 +4°C° 0 mm 1 mps 751 mmHg 92%
    03:00 +3°C° 0 mm 1 mps 751 mmHg 92%
    04:00 +4°C° 0 mm 1 mps 752 mmHg 92%
    05:00 +4°C° 0 mm 1 mps 752 mmHg 93%
    06:00 +4°C° 0 mm 1 mps 753 mmHg 93%
    07:00 +4°C° 0.1 mm 2 mps 754 mmHg 93%
    08:00 +3°C° 0.1 mm 3 mps 754 mmHg 93%
    09:00 +4°C° 0.1 mm 4 mps 755 mmHg 94%
    10:00 +3°C° 0.3 mm 5 mps 756 mmHg 91%
    11:00 +4°C° 0.3 mm 7 mps 756 mmHg 89%
    12:00 +4°C° 0.3 mm 8 mps 757 mmHg 87%
    13:00 +4°C° 0.1 mm 8 mps 757 mmHg 84%
    14:00 +2°C° 0.1 mm 8 mps 758 mmHg 81%
    15:00 +2°C° 0.1 mm 8 mps 758 mmHg 78%
    16:00 +3°C° 0.1 mm 7 mps 759 mmHg 77%
    17:00 +3°C° 0.1 mm 7 mps 760 mmHg 76%
    18:00 +3°C° 0.1 mm 7 mps 761 mmHg 76%
    19:00 +3°C° 0.1 mm 7 mps 761 mmHg 75%
    20:00 +2°C° 0.1 mm 6 mps 762 mmHg 74%
    21:00 +2°C° 0.1 mm 6 mps 763 mmHg 74%
    22:00 +2°C° 0 mm 5 mps 763 mmHg 74%
    23:00 +2°C° 0 mm 5 mps 763 mmHg 74%

    21 January, Monday

    Time Temperature Precipitation Wind Pressure Humidity
    00:00 +2°C° 0 mm 5 mps 763 mmHg 74%
    01:00 +1°C° 0 mm 4 mps 763 mmHg 75%
    02:00 +1°C° 0 mm 4 mps 763 mmHg 75%
    03:00 +1°C° 0 mm 3 mps 763 mmHg 76%
    04:00 +1°C° 0 mm 3 mps 763 mmHg 76%
    05:00 +2°C° 0 mm 2 mps 763 mmHg 76%
    06:00 +2°C° 0 mm 2 mps 763 mmHg 77%
    07:00 +2°C° 0 mm 2 mps 762 mmHg 79%
    08:00 +2°C° 0 mm 2 mps 762 mmHg 81%
    09:00 +1°C° 0 mm 3 mps 762 mmHg 82%
    10:00 +2°C° 0 mm 3 mps 761 mmHg 79%
    11:00 +3°C° 0 mm 4 mps 760 mmHg 75%
    12:00 +3°C° 0 mm 5 mps 760 mmHg 72%
    13:00 +3°C° 0.1 mm 5 mps 758 mmHg 73%
    14:00 +2°C° 0.1 mm 5 mps 757 mmHg 75%
    15:00 +2°C° 0.1 mm 5 mps 756 mmHg 76%
    16:00 +2°C° 0.1 mm 6 mps 754 mmHg 78%
    17:00 +2°C° 0.1 mm 6 mps 753 mmHg 80%
    18:00 +2°C° 0.1 mm 7 mps 751 mmHg 83%
    19:00 +2°C° 0.4 mm 7 mps 750 mmHg 84%
    20:00 +2°C° 0.4 mm 7 mps 748 mmHg 85%
    21:00 +3°C° 0.4 mm 7 mps 747 mmHg 87%
    22:00 +2°C° 1.4 mm 7 mps 745 mmHg 88%
    23:00 +2°C° 1.4 mm 7 mps 744 mmHg 90%

    22 January, Tuesday

    Time Temperature Precipitation Wind Pressure Humidity
    00:00 +2°C° 1.4 mm 7 mps 743 mmHg 91%
    01:00 +2°C° 1.3 mm 7 mps 743 mmHg 89%
    02:00 0°C° 1.3 mm 7 mps 742 mmHg 87%
    03:00 0°C° 1.3 mm 7 mps 742 mmHg 85%
    04:00 0°C° 0.6 mm 8 mps 742 mmHg 85%
    05:00 0°C° 0.6 mm 9 mps 742 mmHg 84%
    06:00 0°C° 0.6 mm 9 mps 742 mmHg 83%
    07:00 0°C° 0.5 mm 9 mps 742 mmHg 82%
    08:00 0°C° 0.5 mm 10 mps 742 mmHg 81%
    09:00 0°C° 0.5 mm 10 mps 742 mmHg 79%
    10:00 0°C° 0.6 mm 10 mps 743 mmHg 79%
    11:00 +1°C° 0.6 mm 10 mps 743 mmHg 79%
    12:00 +1°C° 0.6 mm 9 mps 743 mmHg 79%
    13:00 +1°C° 0.2 mm 9 mps 743 mmHg 79%
    14:00 +1°C° 0.2 mm 9 mps 743 mmHg 78%
    15:00 +1°C° 0.2 mm 8 mps 743 mmHg 78%
    16:00 +1°C° 0 mm 8 mps 743 mmHg 77%
    17:00 0°C° 0 mm 8 mps 743 mmHg 77%
    18:00 0°C° 0 mm 8 mps 744 mmHg 76%
    19:00 0°C° 0 mm 8 mps 744 mmHg 76%
    20:00 0°C° 0 mm 8 mps 745 mmHg 76%
    21:00 0°C° 0 mm 8 mps 745 mmHg 76%
    22:00 0°C° 0 mm 7 mps 746 mmHg 77%
    23:00 0°C° 0 mm 7 mps 746 mmHg 77%
    Show more